Regional Weather Roundup
Issued by NWS

Home | Current Version | Previous Version | Graphics & Text | Print | Product List | Glossary On
Versions: 1 2 3 4 5 6 7 8 9 10 11 12 13 14 15 16 17 18 19 20 21 22 23 24 25 26 27 28 29 30 31 32 33 34 35 36 37 38 39 40 41 42 43 44 45 46 47 48 49 50
000
ASUS44 KMEG 201210
RWRTN
TENNESSEE HOURLY STATE WEATHER ROUNDUP
NATIONAL WEATHER SERVICE MEMPHIS TN
700 AM CDT MON OCT 20 2014

TNZ002-004-019-021-049-052-054-088>092-201300-
WEST TENNESSEE

CITY           SKY/WX    TMP DP  RH WIND       PRES   REMARKS
MEMPHIS INTL   PTCLDY    49  46  90 CALM      30.08R
NWS MEMPHIS      N/A     46 N/A N/A MISG        N/A
JACKSON        MOCLDY    46  43  89 CALM      30.08S
DYERSBURG      MOCLDY    50  37  62 CALM      30.08S
UNION CITY     CLEAR     45  45 100 CALM      30.05S
PARIS          CLEAR     45  43  93 S3        30.07R
HUNTINGDON     MOCLDY    44  43  97 CALM      30.07F
LEXINGTON      CLEAR     41  41 100 CALM      30.07S
SAVANNAH       PTCLDY    39  39 100 CALM      30.10R
$$

TNZ008-025-027-028-033-062-065-066-201300-
NORTH MIDDLE TENNESSEE

CITY           SKY/WX    TMP DP  RH WIND       PRES   REMARKS
NASHVILLE      PTCLDY    44  42  93 CALM      30.10R
CLARKSVILLE    PTCLDY    45  45 100 SE3       30.06F
SMYRNA         CLEAR     40  40 100 CALM      30.11S
COOKEVILLE     CLEAR     37  37 100 CALM      30.09S
CROSSVILLE     CLEAR     46  41  82 VRB3      30.10S
$$

TNZ061-075-076-078-094-096-097-201300-
SOUTH MIDDLE TENNESSEE

CITY           SKY/WX    TMP DP  RH WIND       PRES   REMARKS
FAYETTEVILLE   CLEAR     43  43 100 N3        30.10R
TULLAHOMA      CLEAR     37  36  93 CALM      30.10S
WINCHESTER     CLEAR     41  39  93 CALM      30.10S
MCMINNVILLE      N/A     39  39 100 CALM      30.10S
COLUMBIA       PTCLDY   N/A N/A N/A CALM      30.08S
SHELBYVILLE    CLEAR     43  43 100 CALM      30.11S
$$

TNZ017-018-042-046-047-201300-
NORTHEAST TENNESSEE

CITY           SKY/WX    TMP DP  RH WIND       PRES   REMARKS
TRI CITIES     MOCLDY    41  39  93 CALM      30.10R
ELIZABETHTON   SUNNY     43  39  87 N3        30.09S
$$

TNZ012-013-036-069-073-074-201300-
CENTRAL EAST TENNESSEE

CITY           SKY/WX    TMP DP  RH WIND       PRES   REMARKS
KNOXVILLE      FOG       46  46 100 S3        30.11R VSB 1/16
OAK RIDGE      FOG       44  42  93 CALM      30.13R VSB<1/4
GATLINBURG     SUNNY     41  39  93 CALM      30.11R
MORRISTOWN     SUNNY     43  43 100 CALM      30.11R
$$

TNZ083-085-099-201300-
SOUTHEAST TENNESSEE

CITY           SKY/WX    TMP DP  RH WIND       PRES   REMARKS
CHATTANOOGA    PTCLDY    45  43  93 CALM      30.12R
$$

SKY/WX REPORTED AS FAIR MEANS FEW OR NO CLOUDS BELOW
12 THOUSAND FEET.




USA.gov is the U.S. government's official web portal to all federal, state and local government web resources and services.